Regional Weather Roundup
Issued by NWS Grand Forks, ND

Home | Current Version | Previous Version | Graphics & Text | Print | Product List | Glossary On
Versions: 1 2 3 4 5 6 7 8 9 10 11 12 13 14 15 16 17 18 19 20 21 22 23 24 25 26 27 28 29 30 31 32 33 34 35 36 37 38 39 40 41 42 43 44 45 46 47 48 49 50
000
ASUS43 KFGF 102310
RWRFGF
PRAIRIE TO PINES  WEATHER ROUNDUP
NATIONAL WEATHER SERVICE EASTERN NORTH DAKOTA/GRAND FORKS ND
500 PM CST WED FEB 10 2016

 **SATELLITE DATA USED TO AUGMENT SKY COVER AT AUTOMATED STATIONS**
 *****  WEATHER ACROSS EASTERN NORTH DAKOTA  *****

CITY           SKY/WX    TMP DP  RH WIND       PRES   REMARKS
GRAND FORKS    CLOUDY    10  -1  61 NE7       30.25R WCI  -1
GRAND FRKS AFB CLOUDY     9  -1  63 N7        30.25R WCI  -3
DEVILS LAKE    FLURRIES   7   2  80 E9        30.19R WCI  -7
FARGO          CLOUDY    12   2  64 N12       30.21R WCI  -2
WAHPETON ARPT  CLOUDY    14   1  57 N6        30.19R WCI   5
$$

 ***** WEATHER ACROSS CENTRAL AND WESTERN NORTH DAKOTA  *****

CITY           SKY/WX    TMP DP  RH WIND       PRES   REMARKS
BISMARCK       CLOUDY    24  15  68 NE9       30.12R WCI  14
MINOT          CLOUDY    15   6  67 NE5       30.15R HAZE    WCI   8
JAMESTOWN      LGT SNOW   9   4  80 E10       30.16R WCI  -5
MINOT AFB      FLURRIES  13   9  84 NE6       30.15R WCI   3
GARRISON         N/A     17  12  80 NE8       30.12R WCI   7
WILLISTON      CLOUDY    29  24  82 N12       30.12R WCI  19
DICKINSON      CLOUDY    31  25  78 N15       30.05R WCI  20
HETTINGER      CLOUDY    39  28  64 N16       30.04R
$$

 *****  OTHER AIRPORT OBSERVATIONS IN OUR AREA  *****

CITY           SKY/WX    TMP DP  RH WIND       PRES   REMARKS
WALHALLA       FAIR       7   0  72 N5        30.28R WCI  -2
GRAFTON AIRPOR FAIR       9   0  66 N8        30.29R WCI  -4
VALLEY CITY AR LGT SNOW   9   5  85 NE12      30.20R WCI  -6
CANDO          NOT AVBL
CAVALIER APRT  MOCLDY     7   0  72 N5        30.28R WCI  -2
GWINNER        CLOUDY    12   9  85 NE9       30.17R WCI   0
SHEYENNE NWR     N/A     11   5  75 NE7       29.95S WCI   0
ROLLA          FAIR       1  -2  85 SE5       30.18R WCI  -8
 ***** THE ABOVE OBSERVATIONS ARE NON NWS ARE NOT QUALITY
       CONTROLLED AND MAY MIS-REPORT RAIN FOR SNOW...
$$

  *****  WEATHER ACROSS NORTHERN MINNESOTA  *****

CITY           SKY/WX    TMP DP  RH WIND       PRES   REMARKS
FLAG ISLAND    CLEAR      0  -9  65 N5        30.23R WCI -10
WARROAD        CLEAR     -2 -11  65 CALM      30.23R
ROSEAU         CLEAR      0  -9  65 SE3       30.23R
HALLOCK        PTCLDY     7  -6  56 N3        30.27R
THF RVR FALLS  CLOUDY     7  -6  56 CALM      30.23R
BAUDETTE       CLEAR     -5 -15  62 NW7       30.20R WCI -19
WASKISH        CLOUDY     3  -8  60 N5        30.19R WCI  -6
CROOKSTON      CLOUDY     9   0  66 N7        30.26R WCI  -3
STEPHEN NDAWN    N/A      7  -2  66 NE8         N/A  WCI  -6
GREENBUSH NDAW   N/A      3  -6  66 NW1         N/A
$$
  *****  WEATHER ACROSS CENTRAL AND WEST MINNESOTA  *****

CITY           SKY/WX    TMP DP  RH WIND       PRES   REMARKS
FOSSTON        CLOUDY     3  -6  66 N9        30.20R WCI -11
BEMIDJI        CLEAR      5  -6  61 N5        30.16R WCI  -4
PARK RAPIDS    CLOUDY    11  -6  46 NE6       30.12R WCI   1
ELBOW LAKE     CLOUDY    13  -1  54 CALM      30.15R HAZE
WADENA         CLOUDY    10  -4  52 N5        30.12R WCI   2
DETROIT LAKES  CLOUDY    12   3  67 N8        30.15R WCI   1
MOORHEAD       CLOUDY    10   3  72 N12       30.21R WCI  -4
FERGUS FALLS   CLOUDY    12   0  57 NE3       30.19R
MORRIS MN      CLOUDY    12   1  62 E3        30.14R
STAPLES        CLOUDY     9  -8  47 CALM      30.13S
$$
  *****  WEATHER ELSEWHERE ACROSS MINNESOTA  *****

CITY           SKY/WX    TMP DP  RH WIND       PRES   REMARKS
DULUTH         CLEAR      9 -10  42 N7        30.09R WCI  -2
INTRNTL FALLS  CLEAR     -1 -12  59 CALM      30.18S
ELY            CLEAR      1  -8  66 NW5       30.12R WCI  -8
CLOQUET        CLEAR      9 -11  40 NW7       30.11R WCI  -3
WHEATON        FLURRIES  12   7  79 E5        30.19R WCI   4
BRAINERD       CLOUDY     9  -6  50 NW6       30.14R WCI  -1
HIBBING        CLEAR      3  -9  57 NW8       30.13R WCI -10
ALEXANDRIA     CLOUDY    12  -2  53 NE5       30.11R WCI   4
SAINT CLOUD    CLOUDY    11  -3  53 N7        30.14R WCI   0
MINNEAPOLIS    CLOUDY    12  -3  51 NE6       30.14R WCI   3
$$

  *****  WEATHER ACROSS SOUTH DAKOTA  *****

CITY           SKY/WX    TMP DP  RH WIND       PRES   REMARKS
SIOUX FALLS    CLOUDY    16  10  77 E13       30.05R WCI   2
BROOKINGS      FLURRIES  12   7  80 E10       30.06R WCI  -1
WATERTOWN      CLOUDY    11   4  73 E8G17     30.05R WCI  -1
HURON          CLOUDY    21  15  78 E12       30.07R WCI   9
SISSETON         N/A     10   5  80 E7        30.15R WCI  -1
ABERDEEN       CLOUDY    17   9  70 NE10      30.12R WCI   5
MITCHELL       CLOUDY    25  18  74 E14       30.06R WCI  13
PIERRE         CLOUDY    37  26  64 NE18      30.01R
MOBRIDGE       CLOUDY    27  19  72 N9        30.04R WCI  18
RAPID CITY     SUNNY     59  23  25 NW24G31   29.97R
$$

  *****  SOME WEATHER IN NEARBY STATES *****

CITY           SKY/WX    TMP DP  RH WIND       PRES   REMARKS
GLASGOW MT     CLOUDY    34  27  75 N12       30.13R
GREAT FALLS MT MOSUNNY   55  26  32 SW16      30.06F
CHEYENNE WY    CLOUDY    51  18  27 NW20G31   30.12R
SCOTTSBLUFF NE CLOUDY    59  24  26 NW17      30.02R
OMAHA NE       PTCLDY    36  24  62 E8        29.96R
DES MOINES IA  FLURRIES  19  12  74 E10       30.07R WCI   7
DAVENPORT IA   PTCLDY    18   1  47 NW8       30.09R WCI   8
CHICAGO IL     MOCLDY    16   2  54 NW12      30.05R WCI   3
EAU CLAIRE WI  PTCLDY     9  -4  55 NW7       30.12R WCI  -2
LA CROSSE WI   CLEAR     10  -3  55 NW10      30.13R WCI  -4
$$

  *****  SOME NATIONAL WEATHER *****

CITY           SKY/WX    TMP DP  RH WIND       PRES   REMARKS
LA GUARDIA NY  MOCLDY    37  17  44 W16       29.69R
RALEIGH NC     MOCLDY    35  11  36 W10G22    29.94R
ATLANTA GA     MOCLDY    36   7  29 W9        30.11R
NEW ORLEANS LA PTCLDY    57  24  28 SW8       30.27F
OKLAHOMA CITY  SUNNY     71  31  22 SW18      29.97F
ALBUQUERQUE NM MOSUNNY   62  16  16 CALM      30.30F
SALT LAKE CITY CLOUDY    31  28  89 N6        30.44S FOG
LOS ANGELES CA MOSUNNY   74  40  29 W12       30.07F
BOISE ID       MOSUNNY   42  31  64 CALM      30.38F
SEATTLE WA     CLOUDY    56  46  69 SE9       30.22F
$$

*** WEATHER ACROSS MANITOBA...SASKATCHEWAN AND ONTARIO ***
                ***ONTARIO***

CITY           SKY/WX    TMP DP  RH WIND       PRES   REMARKS
GERALDTON      PTCLDY    -6 -15  65 NW7       30.03R WCI -20
THUNDER BAY    PTCLDY     5  -8  56 NW9       30.13R WCI  -9
SIOUX LOOKOUT  PTCLDY    -2 -11  65 NW7       30.16R WCI -16
TORONTO        MOCLDY    19   7  58 W18       29.75R WCI   4
BIG TROUT LK   PTCLDY   -11 -17  77 NW7       30.12S WCI -26
PICKLE LAKE    CRYSTALS  -4 -15  59 NW6       30.09R WCI -16
DRYDEN         CLEAR      0  -9  65 NW6       30.17R WCI -12
KENORA         MOCLDY     0  -8  71 NW6       30.20R WCI -12
$$
                *** MANITOBA***

CITY           SKY/WX    TMP DP  RH WIND       PRES   REMARKS
BRANDON        FLURRIES   7   1  78 E8        30.22R WCI  -6
DAUPHIN        CLOUDY     5   0  78 NE3       30.26R
ISLAND LAKE    PTCLDY    -8 -13  77 W7        30.24S WCI -22
PILOT MOUND      N/A      5   1  85 E5          N/A  WCI  -4
THE PAS        FLURRIES   1  -4  78 NW5       30.30R WCI  -8
THOMPSON       PTCLDY    -2  -9  71 NW6       30.27S WCI -14
WINNIPEG       PTCLDY     1  -8  66 N3        30.30R
LYNN LAKE      CLEAR     -9 -15  77 NW12      30.30R WCI -29
CHURCHILL      CRYSTALS -22 -27  76 NW21G32   30.23F BLWGSNOWWCI -51
GILLAM         PTCLDY   -11 -18  70 W7        30.22S WCI -26
$$
                ***SASKATCHEWAN***

CITY           SKY/WX    TMP DP  RH WIND       PRES   REMARKS
ESTEVAN        NOT AVBL
KINDERSLEY     CLOUDY    28  27  93 E8        30.13S WCI  20
LLOYDMINSTER   CLOUDY    21  18  86 E10       30.17S WCI  10
PRINCE ALBERT  CLOUDY    12   5  73 N13       30.26R WCI  -3
REGINA         CLOUDY    19  16  86 N10       30.15R WCI   8
YORKTON        FLURRIES  10   5  79 CALM      30.20R
N. BATTLEFORD  MOCLDY    23  16  74 E6        30.22R WCI  16
LA RONGE       FLURRIES   5  -2  72 N5        30.33S WCI  -4
SASKATOON      CLOUDY    21  18  86 N10       30.22R WCI  10
SWIFT CURRENT  SNOW      27  27 100 E10       30.09F VSB 3/8 WCI  17
$$
NOTE: THESE ARE AUTOMATED STATIONS WITH LIMITED QUALITY CONTROL
      "FAIR" INDICATES FEW OR NO CLOUDS BELOW 12,000 FEET WITH NO
      SIGNIFICANT WEATHER AND/OR OBSTRUCTIONS TO VISIBILITY.
      SKY/WX - SKY CONDITION AND SIGNIFICANT WEATHER.
      TMP - AIR TEMPERATURE.    DP   - DEWPOINT TEMPERATURE.
      RH  - RELATIVE HUMIDITY.  PRES - PRESSURE.
      HX  - HEAT INDEX.         WCI  - WIND CHILL INDEX.
$



USA.gov is the U.S. government's official web portal to all federal, state and local government web resources and services.